Location: Marcé
(47.5801°N, 0.3280°W)
Time: 21:15:20
(UTC+01:00)

Altair - Pass Details

Date: 10 December 2021
Orbit: 1501 x 1683 km, 47.2° (Epoch: 20 January)

Event Time Altitude Azimuth Distance (km) Brightness Sun altitude
Rises 15:49:23 0° 243° (WSW) 4,817 11.5 9.2°
Reaches altitude 10° 15:52:32 10° 242° (WSW) 3,809 11.2 8.9°
Maximum altitude 16:02:08 74° 160° (SSE) 1,611 7.9 7.8°
Drops below altitude 10° 16:11:23 10° 78° (ENE) 3,685 9.0 6.7°
Sets 16:14:23 0° 76° (ENE) 4,654 9.5 6.4°
